User: anonymous   Login
Location: Unspecified
(0.0000°N, 0.0000°E)
Time: 15:56:49
(UTC+02:00)
Language:

Cosmos 1943 Rocket - Orbit

View from above orbital plane
View from above orbital plane
View from above satellite
View from above satellite

Ground track
Ground track

The orbit data is extracted from the following two-line orbital elements,

1 19120U 88039B   17263.95140302 +.00000006 +00000-0 +25612-4 0  9990
2 19120 071.0136 122.5802 0020652 036.5192 323.7336 14.19169388519703
Epoch (UTC): 20 September 2017 22:50:01
Eccentricity: 0.0020652
inclination: 71.0136°
perigee height: 813 km
apogee height: 843 km
right ascension of ascending node: 122.5802°
argument of perigee: 36.5192°
revolutions per day: 14.19169388
mean anomaly at epoch: 323.7336°
orbit number at epoch: 51970

The dashed part of the orbit path shows where the satellite is in the earth's shadow,  

DLR